Location: K�ln
(50.9455°N, 6.9544°E)
Time: 07:46:48
(UTC+02:00)

ISS - Visible Passes

Search period start: 09 May 2021 00:00
Search period end: 19 May 2021 00:00
Orbit: 418 x 421 km, 51.6° (Epoch: 08 May)

Date Brightness Start Highest point End Pass type
(mag) Time Alt. Az. Time Alt. Az. Time Alt. Az.
09 May -1.8 02:03:26 21° E 02:03:26 21° E 02:04:46 10° E visible
09 May -3.7 03:36:22 24° W 03:38:16 80° N 03:41:40 10° E visible
09 May -3.8 05:11:45 10° WNW 05:15:09 84° SSW 05:18:33 10° ESE visible
10 May -3.9 02:50:22 66° W 02:50:48 89° NNW 02:54:12 10° E visible
10 May -3.7 04:24:19 10° W 04:27:42 85° N 04:31:06 10° E visible
11 May -3.0 02:04:21 43° E 02:04:21 43° E 02:06:46 10° ENE visible
11 May -3.7 03:37:17 13° W 03:40:15 78° N 03:43:38 10° E visible
12 May -1.6 01:18:16 18° E 01:18:16 18° E 01:19:19 10° ENE visible
12 May -3.7 02:51:12 29° W 02:52:47 77° N 02:56:11 10° E visible
12 May -3.8 04:26:16 10° WNW 04:29:38 68° SSW 04:33:00 10° ESE visible
13 May -3.7 02:05:02 71° WNW 02:05:20 80° N 02:08:43 10° E visible
13 May -3.9 03:38:50 10° WNW 03:42:13 84° SSW 03:45:36 10° ESE visible
14 May -3.3 01:18:38 51° ENE 01:18:38 51° ENE 01:21:16 10° E visible
14 May -3.8 02:51:31 11° W 02:54:46 85° N 02:58:10 10° E visible
14 May -3.2 04:28:16 10° W 04:31:26 38° SSW 04:34:36 10° SE visible
14 May -2.6 22:51:13 10° SSW 22:53:58 23° SE 22:55:39 16° ESE visible
15 May -3.9 00:27:04 10° WSW 00:30:26 77° SSE 00:33:49 10° ENE visible
15 May -3.7 02:03:55 10° W 02:07:19 78° N 02:10:42 10° E visible
15 May -3.7 03:40:47 10° W 03:44:05 51° SSW 03:47:23 10° SE visible
15 May -2.1 22:04:29 10° S 22:06:42 17° SE 22:08:55 10° E visible
15 May -3.8 23:39:41 10° WSW 23:43:02 61° SSE 23:46:22 10° ENE visible
16 May -3.7 01:16:27 10° W 01:19:51 77° N 01:23:14 10° E visible
16 May -3.9 02:53:19 10° WNW 02:56:41 68° SSW 03:00:03 10° ESE visible
16 May -2.3 04:30:36 10° W 04:33:05 19° SW 04:35:34 10° S visible
16 May -3.5 22:52:25 10° SW 22:55:38 45° SSE 22:58:53 10° E visible
17 May -3.7 00:28:59 10° W 00:32:22 80° N 00:35:46 10° E visible
17 May -3.9 02:05:52 10° WNW 02:09:15 83° SSW 02:12:38 10° ESE visible
17 May -2.8 03:42:53 10° W 03:45:48 27° SSW 03:48:42 10° SSE visible
17 May -3.0 22:05:14 10° SW 22:08:17 33° SSE 22:11:22 10° E visible
17 May -3.8 23:41:32 10° WSW 23:44:54 89° NNW 23:48:18 10° E visible
18 May -3.8 01:18:25 10° W 01:21:48 85° N 01:22:56 39° E visible
18 May -1.4 02:55:19 10° W 02:55:49 13° W 02:55:49 13° W visible
18 May -3.9 22:54:06 10° WSW 22:57:28 78° SSE 23:00:51 10° ENE visible
